Regional Weather Roundup
Issued by NWS

Home | Current Version | Previous Version | Text Only | Print | Product List | Glossary Off
Versions: 1 2 3 4 5 6 7 8 9 10 11 12 13 14 15 16 17 18 19 20 21 22 23 24 25 26 27 28 29 30 31 32 33 34 35 36 37 38 39 40 41 42 43 44 45 46 47 48 49 50

000
ASUS45 KBOU 311407
RWRCO

WEATHER ROUNDUP FOR COLORADO
NATIONAL WEATHER SERVICE DENVER/BOULDER CO
800 AM MDT MON AUG 31 2015

NOTE: "FAIR" INDICATES FEW OR NO CLOUDS BELOW 12000 FEET WITH NO
SIGNIFICANT WEATHER AND/OR OBSTRUCTIONS TO VISIBILITY.

COZ001>005-013-030-031-311500-
...NORTHWEST COLORADO...

CITY           SKY/WX    TMP DP  RH WIND       PRES   REMARKS
CRAIG          CLOUDY    58  50  75 E9        30.24R
HAYDEN         NOT AVBL
MEEKER           N/A     59  53  80 NE3       30.25
MOUNT WERNER   NOT AVBL
STEAMBOAT SPGS CLOUDY    52  50  93 NW5       30.27S
WALDEN         CLOUDY    50  46  87 CALM      30.34R
$$

COZ006>008-011-311500-
...WEST CENTRAL VALLEYS...

CITY           SKY/WX    TMP DP  RH WIND       PRES   REMARKS
GRAND JUNCTION CLOUDY    61  59  93 W8        30.17R
MONTROSE       CLOUDY    59  55  87 S3        30.23R
EAGLE          CLOUDY    55  54  94 CALM      30.31R
RIFLE          PTSUNNY   59  57  93 E3        30.22R
DELTA          RAIN      65  56  73 CALM      30.19S
NUCLA          CLOUDY    64  50  59 E6        30.26R
$$

COZ017>023-064>068-311500-
...SOUTHWEST COLORADO...

CITY           SKY/WX    TMP DP  RH WIND       PRES   REMARKS
DURANGO        PTSUNNY   59  48  67 CALM      30.28R
CORTEZ         SUNNY     60  49  66 NE6       30.23R
PAGOSA SPRINGS PTSUNNY   56  47  71 CALM      30.36R
TELLURIDE      CLOUDY    55  45  69 CALM      30.43S
WOLF CREEK PAS MOSUNNY   45  41  87 SW7       30.63R
$$

COZ009-010-012-014-032>034-037-058>063-311500-
...CENTRAL COLORADO...

CITY           SKY/WX    TMP DP  RH WIND       PRES   REMARKS
ASPEN          PTSUNNY   54  51  90 CALM      30.33R
BUENA VISTA    CLOUDY    60  44  56 NW6       30.32S
COPPER MTN     CLOUDY    46  37  71 W5        30.59R
BERTHOUD PASS  HAZE      37  27  65 NW21G30   30.60R VSB<1/4
COTTONWOOD PAS NOT AVBL
GUNNISON       CLOUDY    52  46  82 N3        30.37R
KREMMLING      CLOUDY    54  48  82 E3        30.34R
LEADVILLE      CLOUDY    49  44  83 N5        30.44R
MONARCH PASS   PTSUNNY   41  39  93 W22       30.68R FOG
SALIDA         CLOUDY    62  46  55 NW6       30.37R
SUNLIGHT       CLOUDY    48  46  93 CALM      30.54R
WILKERSON PASS CLOUDY    50  37  62 W5        30.55R
$$

COZ069>075-311500-
...SAN LUIS VALLEY/SANGRE DE CRISTO MOUNTAINS...

CITY           SKY/WX    TMP DP  RH WIND       PRES   REMARKS
ALAMOSA        PTSUNNY   56  46  69 CALM      30.31R
LA VETA PASS   PTSUNNY   52  41  66 MISG      30.45R
SAGUACHE       CLOUDY    57  45  62 W7        30.34R
$$

COZ035-036-038>040-311500-
...NORTHERN COLORADO FRONT RANGE...

CITY           SKY/WX    TMP DP  RH WIND       PRES   REMARKS
DENVER INTL AP CLOUDY    68  46  45 SE5       30.10R
DMNS CITY PARK   N/A     70  50  49 CALM      30.10R
AURORA         PTSUNNY   65  49  58 SE6       30.12R
FRONT RANGE AP PTSUNNY   68  45  42 CALM      30.12R
ERIE MUNI ARPT CLOUDY    72  49  44 SE8       30.07R
BOULDER MUN AP CLOUDY    72  46  40 SW6       30.08R
CENTENNIAL     CLOUDY    68  50  52 E7        30.12R
BROOMFIELD     PTSUNNY   75  45  33 W12       30.11R
FORT COLLINS   CLOUDY    70  50  49 SE6       30.08R
LONGMONT       CLOUDY    70  54  57 CALM      30.08R
$$

COZ041-046-047-076>085-087-088-311500-
...PIKES PEAK/PALMER DIVIDE AND SOUTHERN FOOTHILLS...

CITY           SKY/WX    TMP DP  RH WIND       PRES   REMARKS
COLO. SPRINGS  PTSUNNY   70  46  42 W3        30.15R
A. F. ACADEMY  PTSUNNY   70  43  38 N7        30.17R
ELLICOTT       NOT AVBL
FALCON         PTSUNNY   70  44  39 MISG      30.20R
FORT CARSON    CLOUDY    70  48  45 NW2       30.12R
LIMON          MOSUNNY   70  48  45 NW12      30.09R
MONUMENT HILL  PTSUNNY   61  43  51 W8        30.22R
TRINIDAD       SUNNY     68  48  48 W8        30.11R
$$

COZ042>045-048>051-090-091-311500-
...NORTHEAST COLORADO...

CITY           SKY/WX    TMP DP  RH WIND       PRES   REMARKS
GREELEY ARPT   PTSUNNY   68  54  60 SW3       30.06R
AKRON          MOSUNNY   75  49  39 N17       30.05R
BURLINGTON     SUNNY     67  50  54 W12       30.00R
WRAY           SUNNY     66  49  55 NW5       29.98R
STERLING       MOSUNNY   70  54  56 N9        29.97F
HOLYOKE        SUNNY     66  50  55 W5        29.98S
FORT MORGAN    MOSUNNY   68  51  54 N7        30.03F
$$

COZ086-089-092>099-311500-
...SOUTHEAST COLORADO...

CITY           SKY/WX    TMP DP  RH WIND       PRES   REMARKS
PUEBLO         MOSUNNY   70  53  54 CALM      30.04R
LA JUNTA       SUNNY     67  50  54 NW6       30.00R
LAMAR          SUNNY     62  54  74 N3        29.95R HAZE
SPRINGFIELD    NOT AVBL
$$



USA.gov is the U.S. government's official web portal to all federal, state and local government web resources and services.